EW4443 Weather Reports


time (UTC)temp
C
wind
direction
speed
KPH
gust
KPH
rain 1hr
cm
rain 24hr
cm
rain mn
cm
humidity
%
barometer
mb
20260506050952 21 315 0.0 3.2 0.00 0.00 0.00 29 1011.1
20260506050452 21 270 0.0 3.2 0.00 0.00 0.00 29 1010.8
20260506044932 21 180 0.0 1.6 0.00 0.00 0.00 29 1010.8
20260506044432 21 180 0.0 1.6 0.00 0.00 0.00 29 1010.8
20260506043933 21 293 0.0 4.8 0.00 0.00 0.00 27 1010.8
20260506043434 21 225 0.0 4.8 0.00 0.00 0.00 27 1010.8
20260506042933 21 270 0.0 4.8 0.00 0.00 0.00 27 1010.5
20260506042433 22 225 0.0 6.4 0.00 0.00 0.00 27 1010.5
20260506041934 22 270 0.0 6.4 0.00 0.00 0.00 27 1010.5
20260506041434 22 225 1.6 4.8 0.00 0.00 0.00 27 1010.5
20260506040932 22 203 0.0 6.4 0.00 0.00 0.00 27 1010.5
20260506040703 22 270 1.6 6.4 0.00 0.00 0.00 27 1010.5
20260506035932 22 180 0.0 11.3 0.00 0.00 0.00 27 1010.0
20260506035432 22 248 1.6 11.3 0.00 0.00 0.00 27 1010.0
20260506034915 22 225 1.6 9.7 0.00 0.00 0.00 27 1010.0
20260506034415 22 270 1.6 9.7 0.00 0.00 0.00 27 1010.0
20260506033916 22 270 1.6 9.7 0.00 0.00 0.00 25 1010.0
20260506033416 22 270 1.6 9.7 0.00 0.00 0.00 25 1010.0
20260506033146 22 270 1.6 12.9 0.00 0.00 0.00 25 1010.0
20260506032413 22 0 1.6 12.9 0.00 0.00 0.00 25 1010.0
20260506031914 22 293 0.0 4.8 0.00 0.00 0.00 25 1009.7
20260506031414 22 293 1.6 11.3 0.00 0.00 0.00 25 1009.7
20260506030913 22 248 1.6 11.3 0.00 0.00 0.00 25 1009.3
20260506030415 22 248 1.6 9.7 0.00 0.00 0.00 25 1009.7
20260506030145 23 293 1.6 6.4 0.00 0.00 0.00 25 1009.3
20260506025415 23 270 1.6 6.4 0.00 0.00 0.00 25 1009.3
20260506024915 23 270 1.6 9.7 0.00 0.00 0.00 25 1009.3
20260506024415 23 248 1.6 9.7 0.00 0.00 0.00 25 1009.0
20260506023913 23 293 1.6 11.3 0.00 0.00 0.00 25 1009.0
20260506023415 23 248 3.2 11.3 0.00 0.00 0.00 25 1009.0
20260506022913 23 225 3.2 12.9 0.00 0.00 0.00 24 1009.0
20260506022413 23 270 3.2 12.9 0.00 0.00 0.00 24 1009.0
20260506021914 23 225 3.2 12.9 0.00 0.00 0.00 24 1008.7
20260506021414 23 225 1.6 11.3 0.00 0.00 0.00 24 1008.7
20260506020914 23 203 3.2 12.9 0.00 0.00 0.00 24 1008.7
20260506020414 23 270 1.6 12.9 0.00 0.00 0.00 24 1008.3
20260506015914 24 0 1.6 14.5 0.00 0.00 0.00 22 1008.3
20260506015413 24 180 3.2 14.5 0.00 0.00 0.00 22 1008.3
20260506014913 24 270 3.2 12.9 0.00 0.00 0.00 22 1008.0
20260506014412 24 270 1.6 9.7 0.00 0.00 0.00 22 1008.3
20260506013912 24 248 1.6 12.9 0.00 0.00 0.00 22 1008.3
20260506013414 25 293 3.2 14.5 0.00 0.00 0.00 22 1008.3
20260506013144 25 270 3.2 14.5 0.00 0.00 0.00 22 1008.3
20260506012413 25 248 3.2 12.9 0.00 0.00 0.00 22 1008.0
20260506011913 25 248 3.2 12.9 0.00 0.00 0.00 24 1008.3
20260506011414 25 248 3.2 12.9 0.00 0.00 0.00 22 1008.0
20260506010912 25 180 3.2 12.9 0.00 0.00 0.00 24 1008.0
20260506010412 25 113 1.6 12.9 0.00 0.00 0.00 24 1008.0
20260506005912 25 203 1.6 11.3 0.00 0.00 0.00 24 1008.0
20260506005643 25 203 3.2 12.9 0.00 0.00 0.00 24 1008.0
20260506005628 25 270 3.2 14.5 0.00 0.00 0.00 24 1008.0
20260506004355 25 270 3.2 14.5 0.00 0.00 0.00 24 1008.0
20260506004125 25 270 3.2 12.9 0.00 0.00 0.00 24 1008.0
20260506003354 25 270 3.2 16.1 0.00 0.00 0.00 24 1008.0
20260506002854 25 270 3.2 16.1 0.00 0.00 0.00 24 1007.6
20260506002353 25 293 1.6 11.3 0.00 0.00 0.00 22 1007.6
20260506001852 26 225 3.2 11.3 0.00 0.00 0.00 24 1007.6
20260506001352 26 225 3.2 16.1 0.00 0.00 0.00 22 1007.6
20260506001125 26 248 3.2 16.1 0.00 0.00 0.00 22 1007.6
20260506000625 26 180 3.2 17.7 0.00 0.00 0.00 22 1007.6
20260505235854 26 203 3.2 17.7 0.00 0.00 0.00 22 1007.6
20260505235355 26 203 3.2 14.5 0.00 0.00 0.00 22 1007.6
20260505234853 26 293 3.2 14.5 0.00 0.00 0.00 22 1007.6
20260505234625 26 248 3.2 12.9 0.00 0.00 0.00 22 1007.3
20260505234124 26 180 3.2 16.1 0.00 0.00 0.00 22 1007.6
20260505233624 26 225 3.2 17.7 0.00 0.00 0.00 22 1007.6
20260505232853 26 270 3.2 17.7 0.00 0.00 0.00 22 1007.6
20260505232623 26 270 3.2 16.1 0.00 0.00 0.00 22 1007.6
20260505231854 26 270 3.2 16.1 0.00 0.00 0.00 22 1007.6
20260505231352 26 293 3.2 17.7 0.00 0.00 0.00 22 1007.6
20260505230853 26 225 3.2 17.7 0.00 0.00 0.00 22 1007.6
20260505230353 26 293 4.8 17.7 0.00 0.00 0.00 24 1007.6
20260505225854 26 0 3.2 17.7 0.00 0.00 0.00 22 1007.6
20260505225351 27 180 4.8 16.1 0.00 0.00 0.00 22 1007.6
20260505224852 26 248 3.2 16.1 0.00 0.00 0.00 24 1007.6
20260505224622 26 135 3.2 20.9 0.00 0.00 0.00 22 1007.6
20260505223852 27 248 3.2 22.5 0.00 0.00 0.00 22 1008.0
20260505223352 27 45 3.2 22.5 0.00 0.00 0.00 22 1008.0
20260505222859 27 45 3.2 19.3 0.00 0.00 0.00 24 1008.0
20260505222853 27 338 3.2 19.3 0.00 0.00 0.00 22 1008.0
20260505222353 27 270 3.2 19.3 0.00 0.00 0.00 22 1008.0
20260505221353 26 270 3.2 19.3 0.00 0.00 0.00 24 1008.0
20260505221122 26 338 3.2 17.7 0.00 0.00 0.00 22 1008.0
20260505221110 26 293 3.2 17.7 0.00 0.00 0.00 22 1008.0
20260505215852 26 203 3.2 14.5 0.00 0.00 0.00 24 1008.3
20260505215622 26 225 3.2 14.5 0.00 0.00 0.00 22 1008.3
20260505215122 26 203 3.2 16.1 0.00 0.00 0.00 24 1008.0
20260505214352 26 225 4.8 17.7 0.00 0.00 0.00 22 1008.3
20260505214122 26 180 3.2 19.3 0.00 0.00 0.00 25 1008.7
20260505213352 26 180 4.8 19.3 0.00 0.00 0.00 25 1008.7
20260505212852 26 180 3.2 16.1 0.00 0.00 0.00 25 1008.3
20260505212351 26 270 3.2 16.1 0.00 0.00 0.00 25 1008.7
20260505212122 26 203 3.2 16.1 0.00 0.00 0.00 25 1008.3
20260505211347 26 135 4.8 20.9 0.00 0.00 0.00 25 1008.7
20260505210833 26 248 4.8 20.9 0.00 0.00 0.00 25 1008.7
20260505210340 26 180 4.8 19.3 0.00 0.00 0.00 25 1008.7
20260505210336 26 203 4.8 20.9 0.00 0.00 0.00 25 1008.7
20260505205332 26 180 3.2 19.3 0.00 0.00 0.00 27 1009.0
20260505204832 26 180 3.2 16.1 0.00 0.00 0.00 27 1009.0
20260505204332 26 270 3.2 19.3 0.00 0.00 0.00 27 1008.7
20260505203831 25 180 3.2 19.3 0.00 0.00 0.00 29 1009.0
20260505203331 25 248 3.2 12.9 0.00 0.00 0.00 27 1008.7
20260505202831 25 270 1.6 16.1 0.00 0.00 0.00 30 1009.0
20260505202331 25 225 3.2 16.1 0.00 0.00 0.00 30 1009.0
20260505201832 25 270 3.2 14.5 0.00 0.00 0.00 31 1009.0
20260505201332 25 248 3.2 14.5 0.00 0.00 0.00 31 1009.0
20260505200832 25 270 3.2 14.5 0.00 0.00 0.00 30 1009.0
20260505200603 25 135 3.2 12.9 0.00 0.00 0.00 31 1009.3
20260505195832 25 270 3.2 12.9 0.00 0.00 0.00 32 1009.3
20260505195330 25 203 3.2 14.5 0.00 0.00 0.00 32 1009.3
20260505194830 25 225 3.2 19.3 0.00 0.00 0.00 32 1009.3
20260505194332 25 158 4.8 19.3 0.00 0.00 0.00 34 1009.3
20260505194101 25 180 3.2 17.7 0.00 0.00 0.00 35 1009.3
20260505193332 25 203 4.8 19.3 0.00 0.00 0.00 34 1009.7
20260505192830 25 248 3.2 19.3 0.00 0.00 0.00 34 1009.3
20260505192330 24 180 3.2 16.1 0.00 0.00 0.00 35 1009.3
20260505191830 24 225 4.8 16.1 0.00 0.00 0.00 35 1009.7
20260505191331 24 203 3.2 14.5 0.00 0.00 0.00 35 1009.7
20260505191101 24 270 3.2 16.1 0.00 0.00 0.00 37 1009.7
20260505190329 23 225 3.2 19.3 0.00 0.00 0.00 37 1009.7
20260505185829 23 225 4.8 19.3 0.00 0.00 0.00 37 1010.0
20260505185329 23 203 4.8 16.1 0.00 0.00 0.00 37 1009.7
20260505184830 23 180 3.2 14.5 0.00 0.00 0.00 37 1009.7
20260505184329 23 180 3.2 16.1 0.00 0.00 0.00 37 1010.0
20260505183830 23 180 4.8 16.1 0.00 0.00 0.00 37 1010.0
20260505183330 23 203 3.2 16.1 0.00 0.00 0.00 35 1010.0
20260505182829 23 158 3.2 12.9 0.00 0.00 0.00 37 1010.0
20260505182329 23 203 3.2 19.3 0.00 0.00 0.00 37 1010.0
20260505181828 23 203 3.2 19.3 0.00 0.00 0.00 37 1010.0
20260505181328 23 180 3.2 19.3 0.00 0.00 0.00 37 1010.0
20260505180828 23 225 3.2 16.1 0.00 0.00 0.00 37 1010.0
20260505180604 23 203 3.2 14.5 0.00 0.00 0.00 40 1010.0
20260505175829 23 225 1.6 12.9 0.00 0.00 0.00 40 1009.7
20260505175310 23 225 3.2 12.9 0.00 0.00 0.00 40 1010.0
20260505174810 23 135 3.2 12.9 0.00 0.00 0.00 43 1010.0
20260505174540 22 203 3.2 12.9 0.00 0.00 0.00 43 1010.5
20260505173809 22 203 3.2 14.5 0.00 0.00 0.00 44 1010.0
20260505173309 22 225 3.2 14.5 0.00 0.00 0.00 44 1010.0
20260505172809 22 203 1.6 12.9 0.00 0.00 0.00 45 1010.0
20260505172309 22 180 3.2 12.9 0.00 0.00 0.00 44 1010.0
20260505171809 22 180 3.2 12.9 0.00 0.00 0.00 45 1010.0
20260505171309 22 248 1.6 12.9 0.00 0.00 0.00 45 1010.0
20260505170810 22 180 3.2 12.9 0.00 0.00 0.00 45 1010.0
20260505170309 22 180 1.6 12.9 0.00 0.00 0.00 45 1010.0
20260505165808 22 315 1.6 12.9 0.00 0.00 0.00 45 1010.0
20260505165309 22 180 3.2 12.9 0.00 0.00 0.00 46 1010.0
20260505164809 22 225 3.2 12.9 0.00 0.00 0.00 48 1010.0
20260505164308 21 248 3.2 11.3 0.00 0.00 0.00 49 1009.7
20260505163810 21 225 1.6 9.7 0.00 0.00 0.00 49 1010.0
20260505163540 21 180 3.2 11.3 0.00 0.00 0.00 49 1010.0
20260505162809 21 180 1.6 11.3 0.00 0.00 0.00 49 1010.5
20260505162540 21 180 1.6 11.3 0.00 0.00 0.00 49 1010.0
20260505161809 21 203 3.2 12.9 0.00 0.00 0.00 50 1010.5
20260505161539 21 158 3.2 12.9 0.00 0.00 0.00 50 1010.5
20260505160808 21 180 3.2 11.3 0.00 0.00 0.00 50 1010.0
20260505160538 21 158 3.2 12.9 0.00 0.00 0.00 50 1010.5
20260505153309 21 203 1.6 8.0 0.00 0.00 0.00 51 1010.5
20260505152809 21 158 1.6 8.0 0.00 0.00 0.00 53 1010.0
20260505152307 20 180 1.6 9.7 0.00 0.00 0.00 53 1010.0
20260505151807 20 180 1.6 9.7 0.00 0.00 0.00 53 1010.0
20260505151307 20 225 1.6 9.7 0.00 0.00 0.00 54 1010.0
20260505150807 20 180 1.6 11.3 0.00 0.00 0.00 54 1010.0
20260505150308 20 180 3.2 11.3 0.00 0.00 0.00 55 1010.0
20260505140308 20 180 3.2 9.7 0.00 0.00 0.00 61 1010.0
20260505130307 19 135 1.6 9.7 0.00 0.00 0.00 58 1009.7
20260505124807 19 90 0.0 3.2 0.00 0.00 0.00 60 1009.3
20260505124308 19 203 0.0 3.2 0.00 0.00 0.00 59 1009.3
20260505123807 19 135 0.0 4.8 0.00 0.00 0.00 59 1009.7
20260505123307 19 203 1.6 4.8 0.00 0.00 0.00 59 1009.3
20260505122807 19 158 0.0 4.8 0.00 0.00 0.00 59 1009.3
20260505122306 19 248 0.0 3.2 0.00 0.00 0.00 60 1009.3
20260505121805 18 225 0.0 4.8 0.00 0.00 0.00 60 1009.0
20260505121306 19 68 0.0 4.8 0.00 0.00 0.00 60 1009.3
20260505120806 19 225 0.0 0.0 0.00 0.00 0.00 60 1009.0
20260505120307 19 270 0.0 0.0 0.00 0.00 0.00 60 1009.0
20260505115807 19 315 0.0 0.0 0.00 0.00 0.00 59 1009.3
20260505115307 19 45 0.0 0.0 0.00 0.00 0.00 59 1009.3
20260505114807 19 315 0.0 1.6 0.00 0.00 0.00 58 1009.3
20260505114307 19 315 0.0 4.8 0.00 0.00 0.00 56 1009.0
20260505113805 19 203 0.0 4.8 0.00 0.00 0.00 55 1009.0
20260505113306 19 45 0.0 1.6 0.00 0.00 0.00 55 1009.0
20260505112806 19 90 0.0 4.8 0.00 0.00 0.00 55 1009.3
20260505112306 19 135 0.0 6.4 0.00 0.00 0.00 55 1009.0
20260505111807 20 158 1.6 6.4 0.00 0.00 0.00 55 1009.0
20260505111538 20 180 1.6 8.0 0.00 0.00 0.00 55 1009.0
20260505110807 20 158 1.6 8.0 0.00 0.00 0.00 55 1009.0
20260505110539 20 90 1.6 8.0 0.00 0.00 0.00 55 1009.0
20260505101806 19 180 3.2 14.5 0.00 0.00 0.00 55 1009.7
20260505101307 19 203 3.2 16.1 0.00 0.00 0.00 55 1009.7
20260505100806 19 225 3.2 16.1 0.00 0.00 0.00 55 1009.7
20260505100305 19 180 3.2 14.5 0.00 0.00 0.00 54 1010.0
20260505100036 19 158 3.2 14.5 0.00 0.00 0.00 54 1010.0
20260505095305 19 248 3.2 14.5 0.00 0.00 0.00 54 1010.0
20260505094806 19 158 3.2 14.5 0.00 0.00 0.00 54 1010.0
20260505094306 19 180 1.6 12.9 0.00 0.00 0.00 54 1010.5
20260505093806 19 135 1.6 11.3 0.00 0.00 0.00 54 1010.0
20260505093306 19 90 1.6 11.3 0.00 0.00 0.00 54 1010.0
20260505092807 19 135 3.2 11.3 0.00 0.00 0.00 54 1010.0
20260505092305 19 203 1.6 8.0 0.00 0.00 0.00 55 1010.0
20260505092035 19 180 0.0 6.4 0.00 0.00 0.00 56 1010.0
20260505091305 19 225 0.0 3.2 0.00 0.00 0.00 59 1010.0
20260505090804 19 0 0.0 4.8 0.00 0.00 0.00 58 1010.0
20260505090535 20 180 0.0 8.0 0.00 0.00 0.00 58 1010.0
20260505085805 20 203 1.6 9.7 0.00 0.00 0.00 55 1010.5
20260505085306 20 180 1.6 12.9 0.00 0.00 0.00 55 1010.5
20260505084806 20 158 3.2 19.3 0.00 0.00 0.00 54 1010.5
20260505084306 20 158 3.2 19.3 0.00 0.00 0.00 53 1010.5
20260505083806 20 158 3.2 17.7 0.00 0.00 0.00 53 1010.5
20260505083308 20 158 4.8 24.1 0.00 0.00 0.00 51 1010.5
20260505083304 20 135 3.2 19.3 0.00 0.00 0.00 51 1010.5
20260505082304 20 180 3.2 16.1 0.00 0.00 0.00 50 1010.8
20260505081804 20 203 3.2 16.1 0.00 0.00 0.00 50 1010.8
20260505081304 20 158 3.2 17.7 0.00 0.00 0.00 50 1010.8
20260505080804 21 180 3.2 17.7 0.00 0.00 0.00 49 1010.8
20260505080305 21 158 3.2 19.3 0.00 0.00 0.00 48 1010.8
20260505075804 21 203 4.8 19.3 0.00 0.00 0.00 45 1010.8
20260505075304 21 135 3.2 17.7 0.00 0.00 0.00 45 1010.8
20260505074802 21 180 3.2 19.3 0.00 0.00 0.00 41 1010.8
20260505074302 21 180 3.2 19.3 0.00 0.00 0.00 40 1010.5
20260505073802 21 158 4.8 19.3 0.00 0.00 0.00 40 1010.8
20260505073303 21 203 3.2 16.1 0.00 0.00 0.00 40 1010.5
20260505072803 21 180 3.2 12.9 0.00 0.00 0.00 40 1010.8
20260505072308 21 158 3.2 12.9 0.00 0.00 0.00 40 1010.5
20260505072305 21 225 3.2 12.9 0.00 0.00 0.00 40 1010.5
20260505071304 21 158 3.2 16.1 0.00 0.00 0.00 40 1010.5
20260505070802 21 203 3.2 16.1 0.00 0.00 0.00 40 1010.8
20260505070532 21 135 3.2 12.9 0.00 0.00 0.00 40 1010.8
20260505065801 21 203 3.2 17.7 0.00 0.00 0.00 40 1010.8
20260505065534 21 158 3.2 17.7 0.00 0.00 0.00 39 1010.5
20260505065033 21 248 3.2 19.3 0.00 0.00 0.00 37 1010.8
20260505064303 21 158 4.8 19.3 0.00 0.00 0.00 37 1010.5
20260505063802 21 180 4.8 17.7 0.00 0.00 0.00 35 1010.5
20260505063303 22 203 3.2 17.7 0.00 0.00 0.00 35 1010.0
20260505062803 22 180 3.2 16.1 0.00 0.00 0.00 34 1010.0
20260505062304 22 180 3.2 17.7 0.00 0.00 0.00 34 1010.0
20260505061801 22 180 3.2 17.7 0.00 0.00 0.00 32 1010.0
20260505061301 22 135 3.2 20.9 0.00 0.00 0.00 31 1010.0
20260505060802 22 203 3.2 20.9 0.00 0.00 0.00 30 1010.0
20260505060302 22 180 4.8 17.7 0.00 0.00 0.00 30 1010.0